When you browse on this site, cookies collect data to enhance your experience and personalize the content and advertising you see.
Visit our Privacy Policy to learn more. By continuing to use the site, you agree to this use of cookies and data.
  • In Österreich
  • Länderverzeichnis
  • Für 7 Tage
  • Wassertemperatur
  • Wetterkarte
  • News
  • Widgets
  • user-avatar
    Anmelden

    Stündliche Wetter Lenguazaque

    Heute, 17 November, Sonntag

    Zeit Temperatur Niederschläge Wind Luftdruck Luftfeuchtigkeit
    00:00 +10°C° 0 mm 1 m/S 550 mmHg 96%
    01:00 +9°C° 0 mm 0 m/S 550 mmHg 95%
    02:00 +9°C° 0 mm 0 m/S 549 mmHg 95%
    03:00 +9°C° 0 mm 0 m/S 549 mmHg 95%
    04:00 +8°C° 0 mm 0 m/S 549 mmHg 95%
    05:00 +9°C° 0 mm 0 m/S 550 mmHg 94%
    06:00 +10°C° 0 mm 0 m/S 550 mmHg 93%
    07:00 +11°C° 0 mm 0 m/S 551 mmHg 92%
    08:00 +13°C° 0 mm 0 m/S 553 mmHg 82%
    09:00 +16°C° 0 mm 0 m/S 554 mmHg 71%
    10:00 +19°C° 0 mm 0 m/S 556 mmHg 61%
    11:00 +21°C° 0.1 mm 1 m/S 555 mmHg 62%
    12:00 +20°C° 0.1 mm 1 m/S 554 mmHg 64%
    13:00 +20°C° 0.1 mm 1 m/S 553 mmHg 65%
    14:00 +19°C° 0.4 mm 1 m/S 552 mmHg 71%
    15:00 +19°C° 0.4 mm 1 m/S 552 mmHg 78%
    16:00 +18°C° 0.4 mm 1 m/S 551 mmHg 84%
    17:00 +15°C° 0.2 mm 1 m/S 551 mmHg 88%
    18:00 +14°C° 0.2 mm 1 m/S 550 mmHg 92%
    19:00 +11°C° 0.2 mm 0 m/S 550 mmHg 97%
    20:00 +11°C° 0 mm 0 m/S 550 mmHg 97%
    21:00 +11°C° 0 mm 1 m/S 550 mmHg 96%
    22:00 +11°C° 0 mm 1 m/S 551 mmHg 96%
    23:00 +11°C° 0 mm 1 m/S 550 mmHg 96%

    Morgen, 18 November, Montag

    Zeit Temperatur Niederschläge Wind Luftdruck Luftfeuchtigkeit
    00:00 +10°C° 0 mm 1 m/S 550 mmHg 96%
    01:00 +10°C° 0 mm 1 m/S 549 mmHg 96%
    02:00 +9°C° 0 mm 1 m/S 549 mmHg 96%
    03:00 +9°C° 0 mm 1 m/S 549 mmHg 96%
    04:00 +9°C° 0 mm 1 m/S 548 mmHg 96%
    05:00 +9°C° 0 mm 0 m/S 549 mmHg 94%
    06:00 +10°C° 0 mm 0 m/S 550 mmHg 92%
    07:00 +11°C° 0 mm 0 m/S 551 mmHg 90%
    08:00 +13°C° 0 mm 0 m/S 553 mmHg 80%
    09:00 +16°C° 0 mm 0 m/S 554 mmHg 70%
    10:00 +21°C° 0 mm 1 m/S 556 mmHg 59%
    11:00 +21°C° 0.1 mm 1 m/S 555 mmHg 60%
    12:00 +21°C° 0.1 mm 1 m/S 554 mmHg 61%
    13:00 +21°C° 0.1 mm 1 m/S 554 mmHg 61%
    14:00 +20°C° 0.6 mm 1 m/S 553 mmHg 70%
    15:00 +18°C° 0.6 mm 1 m/S 552 mmHg 78%
    16:00 +16°C° 0.6 mm 1 m/S 551 mmHg 87%
    17:00 +15°C° 0.9 mm 1 m/S 551 mmHg 90%
    18:00 +12°C° 0.9 mm 0 m/S 551 mmHg 94%
    19:00 +11°C° 0.9 mm 0 m/S 550 mmHg 98%
    20:00 +11°C° 0.2 mm 0 m/S 551 mmHg 98%
    21:00 +11°C° 0.2 mm 0 m/S 551 mmHg 98%
    22:00 +11°C° 0.2 mm 0 m/S 552 mmHg 98%
    23:00 +11°C° 0.1 mm 0 m/S 551 mmHg 97%

    übermorgen, 19 November, Dienstag

    Zeit Temperatur Niederschläge Wind Luftdruck Luftfeuchtigkeit
    00:00 +11°C° 0.1 mm 0 m/S 551 mmHg 97%
    01:00 +11°C° 0.1 mm 0 m/S 551 mmHg 96%
    02:00 +10°C° 0 mm 0 m/S 551 mmHg 96%
    03:00 +10°C° 0 mm 0 m/S 551 mmHg 95%
    04:00 +10°C° 0 mm 0 m/S 551 mmHg 95%
    05:00 +10°C° 0 mm 0 m/S 551 mmHg 94%
    06:00 +11°C° 0 mm 0 m/S 552 mmHg 93%
    07:00 +11°C° 0 mm 0 m/S 552 mmHg 92%
    08:00 +13°C° 0.1 mm 0 m/S 553 mmHg 86%
    09:00 +15°C° 0.1 mm 0 m/S 554 mmHg 79%
    10:00 +19°C° 0.1 mm 1 m/S 556 mmHg 73%
    11:00 +19°C° 0.7 mm 1 m/S 555 mmHg 76%
    12:00 +18°C° 0.7 mm 1 m/S 554 mmHg 80%
    13:00 +18°C° 0.7 mm 1 m/S 553 mmHg 83%
    14:00 +16°C° 1.5 mm 1 m/S 553 mmHg 86%
    15:00 +16°C° 1.5 mm 1 m/S 552 mmHg 89%
    16:00 +15°C° 1.5 mm 1 m/S 552 mmHg 91%
    17:00 +13°C° 0.8 mm 0 m/S 552 mmHg 93%
    18:00 +13°C° 0.8 mm 0 m/S 552 mmHg 95%
    19:00 +12°C° 0.8 mm 0 m/S 552 mmHg 97%
    20:00 +12°C° 0.3 mm 0 m/S 552 mmHg 97%
    21:00 +11°C° 0.3 mm 0 m/S 552 mmHg 97%
    22:00 +11°C° 0.3 mm 0 m/S 552 mmHg 96%
    23:00 +11°C° 0.1 mm 0 m/S 552 mmHg 96%

    20 November, Mittwoch

    Zeit Temperatur Niederschläge Wind Luftdruck Luftfeuchtigkeit
    00:00 +10°C° 0.1 mm 0 m/S 551 mmHg 96%
    01:00 +11°C° 0.1 mm 1 m/S 551 mmHg 96%
    02:00 +10°C° 0 mm 1 m/S 550 mmHg 96%
    03:00 +9°C° 0 mm 0 m/S 550 mmHg 96%
    04:00 +9°C° 0 mm 0 m/S 550 mmHg 96%
    05:00 +9°C° 0 mm 0 m/S 551 mmHg 95%
    06:00 +10°C° 0 mm 0 m/S 552 mmHg 94%
    07:00 +11°C° 0 mm 0 m/S 552 mmHg 93%
    08:00 +13°C° 0.1 mm 0 m/S 554 mmHg 84%
    09:00 +16°C° 0.1 mm 1 m/S 555 mmHg 76%
    10:00 +20°C° 0.1 mm 1 m/S 556 mmHg 68%
    11:00 +19°C° 0.7 mm 1 m/S 555 mmHg 72%
    12:00 +19°C° 0.7 mm 1 m/S 554 mmHg 77%
    13:00 +18°C° 0.7 mm 1 m/S 554 mmHg 81%
    14:00 +18°C° 1.1 mm 1 m/S 553 mmHg 84%
    15:00 +16°C° 1.1 mm 1 m/S 552 mmHg 86%
    16:00 +16°C° 1.1 mm 1 m/S 552 mmHg 89%
    17:00 +14°C° 0.5 mm 1 m/S 551 mmHg 92%
    18:00 +12°C° 0.5 mm 0 m/S 551 mmHg 94%
    19:00 +11°C° 0.5 mm 0 m/S 551 mmHg 97%
    20:00 +11°C° 0.1 mm 0 m/S 551 mmHg 97%
    21:00 +10°C° 0.1 mm 0 m/S 551 mmHg 97%
    22:00 +10°C° 0.1 mm 0 m/S 552 mmHg 97%
    23:00 +10°C° 0.2 mm 0 m/S 551 mmHg 97%

    21 November, Donnerstag

    Zeit Temperatur Niederschläge Wind Luftdruck Luftfeuchtigkeit
    00:00 +10°C° 0.2 mm 0 m/S 551 mmHg 97%
    01:00 +10°C° 0.2 mm 0 m/S 551 mmHg 96%
    02:00 +9°C° 0 mm 0 m/S 550 mmHg 96%
    03:00 +9°C° 0 mm 0 m/S 550 mmHg 96%
    04:00 +10°C° 0 mm 1 m/S 550 mmHg 95%
    05:00 +9°C° 0 mm 0 m/S 551 mmHg 94%
    06:00 +10°C° 0 mm 0 m/S 552 mmHg 93%
    07:00 +11°C° 0 mm 0 m/S 552 mmHg 92%
    08:00 +13°C° 0.1 mm 0 m/S 553 mmHg 85%
    09:00 +15°C° 0.1 mm 0 m/S 555 mmHg 78%
    10:00 +17°C° 0.1 mm 0 m/S 556 mmHg 71%
    11:00 +17°C° 0.8 mm 0 m/S 555 mmHg 76%
    12:00 +18°C° 0.8 mm 1 m/S 554 mmHg 81%
    13:00 +16°C° 0.8 mm 1 m/S 553 mmHg 86%
    14:00 +16°C° 1.3 mm 1 m/S 552 mmHg 88%
    15:00 +15°C° 1.3 mm 1 m/S 552 mmHg 90%
    16:00 +15°C° 1.3 mm 1 m/S 551 mmHg 91%
    17:00 +13°C° 1.1 mm 0 m/S 551 mmHg 94%
    18:00 +12°C° 1.1 mm 0 m/S 551 mmHg 96%
    19:00 +11°C° 1.1 mm 0 m/S 551 mmHg 98%
    20:00 +11°C° 1.3 mm 0 m/S 551 mmHg 97%
    21:00 +11°C° 1.3 mm 0 m/S 552 mmHg 96%
    22:00 +12°C° 1.3 mm 1 m/S 552 mmHg 96%
    23:00 +10°C° 0.6 mm 0 m/S 551 mmHg 95%

    22 November, Freitag

    Zeit Temperatur Niederschläge Wind Luftdruck Luftfeuchtigkeit
    00:00 +10°C° 0.6 mm 0 m/S 551 mmHg 95%
    01:00 +10°C° 0.6 mm 0 m/S 551 mmHg 95%
    02:00 +10°C° 0 mm 0 m/S 550 mmHg 95%
    03:00 +9°C° 0 mm 0 m/S 550 mmHg 95%
    04:00 +9°C° 0 mm 0 m/S 550 mmHg 94%
    05:00 +9°C° 0 mm 0 m/S 550 mmHg 94%
    06:00 +10°C° 0 mm 0 m/S 551 mmHg 93%
    07:00 +11°C° 0 mm 0 m/S 552 mmHg 92%
    08:00 +13°C° 0.2 mm 0 m/S 553 mmHg 86%
    09:00 +16°C° 0.2 mm 1 m/S 554 mmHg 80%
    10:00 +19°C° 0.2 mm 1 m/S 555 mmHg 73%
    11:00 +18°C° 1.1 mm 1 m/S 555 mmHg 78%
    12:00 +18°C° 1.1 mm 1 m/S 554 mmHg 82%
    13:00 +16°C° 1.1 mm 1 m/S 553 mmHg 87%
    14:00 +15°C° 1.2 mm 1 m/S 552 mmHg 89%
    15:00 +15°C° 1.2 mm 1 m/S 551 mmHg 91%
    16:00 +14°C° 1.2 mm 1 m/S 550 mmHg 93%
    17:00 +13°C° 1.4 mm 0 m/S 551 mmHg 94%
    18:00 +12°C° 1.4 mm 0 m/S 551 mmHg 96%
    19:00 +11°C° 1.4 mm 0 m/S 551 mmHg 97%
    20:00 +11°C° 1.3 mm 0 m/S 551 mmHg 97%
    21:00 +11°C° 1.3 mm 0 m/S 551 mmHg 96%
    22:00 +11°C° 1.3 mm 0 m/S 551 mmHg 96%
    23:00 +10°C° 1.1 mm 0 m/S 551 mmHg 96%
    Mehr zeigen